Location: Sainte-Foy
(43.9365°N, 0.3323°W)
Time: 11:37:29
(UTC+00:00)

Daily predictions for brighter satellites

Satellite Brightness Start Highest point End
(mag) Time Altitude Azimuth Time Altitude Azimuth Time Altitude Azimuth
SAR-Lupe-2 3.9 18:40:18 10° SE 18:43:42 44° ENE 18:47:08 10° N
Meteor PRIRODA 4.1 18:45:30 10° SE 18:48:30 33° ENE 18:51:30 10° N
Landsat 7 4.1 18:43:54 10° S 18:48:35 74° WSW 18:53:18 10° NNW
Cosmos 1536 4.1 18:50:07 10° SE 18:52:53 19° E 18:55:41 10° NE
Cosmos 1842 4.0 18:49:59 10° NNE 18:53:08 27° ENE 18:56:16 10° SE
Cosmos 2061 Rocket 4.2 18:47:26 10° S 18:53:51 85° W 19:00:21 10° N
COSMOS 2428 2.7 18:48:26 10° SSW 18:54:06 70° ESE 18:59:49 10° NNE
USA 59 Rocket 0.4 18:50:23 10° NNW 18:54:12 52° NE 18:59:28 10° SE
Cosmos 1707 3.6 18:53:58 10° NNE 18:56:56 24° ENE 18:59:53 10° SE
Cosmos 1818 4.3 18:53:58 10° SW 18:59:21 59° NW 19:04:46 10° NNE
Okean O Rocket 3.3 18:57:42 11° E 19:00:19 17° ENE 19:03:10 10° NNE
Cosmos 1626 4.5 19:02:17 10° NW 19:04:40 22° W 19:07:02 10° SW
USA 306 3.6 19:03:45 10° W 19:06:33 37° NNW 19:09:53 10° NE
Meteor 2-4 Rocket 4.5 19:01:36 10° NNW 19:07:27 61° W 19:13:10 10° S
Cosmos 2278 Rocket 2.6 19:01:59 10° NNW 19:07:27 47° ENE 19:12:39 11° SE
CZ-4B DEB 4.2 19:02:29 10° SSE 19:07:55 63° ENE 19:13:21 10° N
CZ-4 R/B 1.5 19:05:20 10° SE 19:08:59 46° ENE 19:12:43 10° N
Tsikada Rocket 4.5 19:03:54 10° NNW 19:10:08 67° W 19:16:25 10° S
CZ-4B R/B 3.7 19:07:27 10° SE 19:12:30 40° ENE 19:17:30 10° N
Cosmos 1766 Rocket 3.5 19:08:28 10° S 19:12:48 76° E 19:17:12 10° NNE
Cosmos 44 Rocket 4.3 19:09:25 10° NW 19:13:54 44° WSW 19:18:18 10° S
NOSS 2-1 (C) 3.6 19:10:38 10° NW 19:14:33 80° NE 19:19:47 11° SE
Resurs 01 Rocket 2.2 19:10:26 10° SE 19:14:33 39° ENE 19:18:40 10° N
TSX-5 3.8 19:13:30 10° NW 19:16:35 59° WSW 19:19:53 10° SSE
YAOGAN 1 4.0 19:12:55 10° SSW 19:16:55 39° W 19:20:58 10° NNW
ADEOS 3.6 19:11:52 10° SSE 19:17:05 89° WSW 19:22:20 10° NNW
USA 290 2.4 19:14:42 10° NNW 19:17:56 53° ENE 19:20:16 17° SE
Helios 1A 2.8 19:13:59 10° NNE 19:18:04 73° ESE 19:22:05 10° S
GEOS 3 Rocket 3.8 19:13:39 13° SE 19:18:13 60° NE 19:23:19 10° NNW
USA 186 2.3 19:17:45 17° SE 19:19:50 38° ENE 19:22:52 10° N
CZ-4B R/B 3.4 19:15:13 10° SSE 19:19:57 82° WSW 19:24:47 10° NNW
Cosmos 1814 Rocket 4.1 19:15:09 10° SSW 19:20:28 84° WNW 19:25:45 10° NNE
PAYLOAD B 4.3 19:15:32 10° SSE 19:21:03 63° ENE 19:26:35 10° N
Cosmos 1743 4.2 19:18:06 10° SW 19:21:25 37° WNW 19:24:45 10° N
SPOT 5 4.4 19:22:14 15° E 19:23:19 16° ENE 19:26:07 10° NNE
KORONAS-FOTON 3.6 19:20:24 10° N 19:24:06 73° E 19:27:45 10° SSE
Okean-O 4.2 19:23:04 16° E 19:24:06 17° ENE 19:26:58 10° NNE
Cosmos 1408 Rocket 4.3 19:23:07 10° SSE 19:26:59 32° E 19:30:54 10° NNE
SPOT 1/Viking Rocket 3.8 19:23:03 10° S 19:28:13 74° WSW 19:33:24 10° NNW
ISS -3.9 19:24:54 10° SW 19:28:15 86° SSE 19:30:43 17° ENE
NOSS 3-3 (A) 4.2 19:23:34 10° S 19:28:18 35° ESE 19:33:40 10° NE
CZ-4B R/B 2.7 19:25:12 10° SSE 19:29:01 79° ENE 19:33:03 10° N
Cosmos 2237 Rocket 2.2 19:27:38 10° S 19:33:07 58° ESE 19:38:39 10° NNE
SL-08 R/B 4.0 19:29:47 10° N 19:34:39 62° WNW 19:39:29 10° SSW
Aureole 3 Rocket 4.4 19:29:33 10° SSE 19:35:53 36° E 19:40:38 10° NNE
CSL-04 Rocket 3.7 19:31:44 14° SE 19:36:14 56° ENE 19:41:25 10° N
Cosmos 2219 Rocket 4.4 19:33:18 10° WSW 19:38:04 27° NW 19:42:53 10° N
Cosmos 1674 3.9 19:38:42 10° NNW 19:41:48 36° W 19:44:51 10° SSW
Meteor 1-14 Rocket 4.3 19:36:23 10° SSW 19:41:54 77° W 19:47:28 10° N
Cosmos 1328 Rocket 4.3 19:38:13 10° NNW 19:42:24 52° W 19:46:34 10° S
Cosmos 1356 Rocket 3.4 19:39:55 10° N 19:44:07 88° W 19:47:40 14° S
SJ-6B 4.0 19:41:18 10° S 19:44:43 39° W 19:48:08 10° NNW
Meteor 1-11 Rocket 3.7 19:39:25 10° S 19:44:56 59° E 19:50:23 10° NNE
Aureole 1 4.3 19:41:54 10° NNW 19:45:04 74° ENE 19:46:29 34° SSE
Lacrosse 4 Rocket 3.6 19:42:12 10° NW 19:45:42 24° WSW 19:49:09 10° SSW
Meteor 1-4 Rocket 3.3 19:44:34 10° NNW 19:47:02 35° W 19:49:06 13° SSW
CARTOSAT-1 3.4 19:46:05 16° SSE 19:49:30 89° WSW 19:53:46 10° NNW
Cosmos 158 Rocket 3.8 19:45:21 10° S 19:50:07 59° ESE 19:54:55 10° NNE
ATLAS CENTAUR R/B 0.8 19:46:44 10° SSW 19:50:14 73° ESE 19:53:56 10° NE
NOSS 2-1 (E) 4.4 19:47:49 10° NW 19:51:51 53° SW 19:56:03 16° SSE
Cosmos 1805 Rocket 3.9 19:52:47 38° ESE 19:53:04 38° E 19:57:05 10° NNE
Cosmos 1733 3.0 19:53:57 10° SSW 19:57:23 77° W 20:00:49 10° N
USA 276 2.3 19:58:16 10° WNW 20:00:38 57° NW 20:00:38 57° NW
In-Cosmos 22 4.1 19:56:22 10° N 20:02:06 87° E 20:06:00 20° S
Cosmos 1980 3.8 19:56:59 10° SSW 20:02:39 79° WNW 20:08:23 10° NNE
Cosmos 2369 Rocket 3.7 19:59:56 10° N 20:04:08 20° NE 20:05:11 19° ENE
SWARM A 4.3 20:03:48 43° S 20:04:52 85° W 20:08:23 10° N
Sich 1 2.9 20:07:34 53° SE 20:08:12 61° E 20:12:27 10° NNE
BlueWalker 3 3.6 20:08:10 10° WNW 20:11:16 24° SW 20:12:13 22° SSW
Cosmos 1943 Rocket 2.1 20:06:05 10° NNW 20:11:37 85° WSW 20:14:05 35° SSE
CSL-04 Debris 4.4 20:07:38 16° S 20:12:07 69° WSW 20:17:36 10° NNW
Terra 3.1 20:13:52 25° NE 20:13:52 25° NE 20:17:04 10° N
ACS3 Solar Sail 1.8 20:09:36 25° SSE 20:13:38 81° ENE 20:20:04 10° N
ERS-1 Rocket 3.8 20:14:03 32° ENE 20:14:03 32° ENE 20:18:22 10° N
Cosmos 1570 Rocket 4.2 20:10:05 10° SSW 20:15:22 73° WNW 20:20:39 10° NNE
Cosmos 2298 Rocket 4.1 20:10:17 10° NNW 20:15:30 57° ENE 20:16:27 49° ESE
Nadezhda 4 Rocket 4.1 20:10:30 10° N 20:16:47 80° W 20:21:40 18° S
Cosmos 2195 Rocket 4.4 20:10:50 10° N 20:16:56 67° E 20:19:12 39° SSE
Cosmos 2150 Rocket 4.0 20:12:06 10° NNW 20:17:12 58° ENE 20:17:57 52° ESE
USA 32 3.9 20:12:54 10° N 20:18:08 68° E 20:19:24 50° SE
Cosmos 1805 3.8 20:21:37 43° NNE 20:21:37 43° NNE 20:24:11 10° N
Ariane Rocket 4.4 20:24:21 23° NE 20:24:21 23° NE 20:27:36 10° NNE
Cosmos 1315 Rocket 2.8 20:20:10 10° NNW 20:24:08 73° W 20:24:27 68° SW
Cosmos 2026 Rocket 3.9 20:18:06 10° N 20:24:17 64° E 20:25:51 48° SE
Cosmos 1092 Rocket 4.0 20:18:29 10° N 20:24:47 63° E 20:26:28 47° SE
Cosmos 836 Rocket 4.4 20:20:35 10° SSW 20:25:52 89° WNW 20:31:12 10° NNE
SL-16 R/B 2.8 20:35:17 39° ENE 20:35:17 39° ENE 20:39:03 10° NNE
Cosmos 1125 Rocket 4.1 20:28:37 10° NNW 20:33:39 53° WSW 20:35:39 33° SSW
Okean O Rocket 2.2 20:35:02 41° SSW 20:36:09 53° W 20:40:31 10° NNW
Cosmos 1634 Rocket 3.9 20:36:31 54° SE 20:37:42 65° E 20:43:58 10° NNE
Cosmos 1656 Rocket 4.1 20:35:59 10° NNW 20:41:19 46° NE 20:41:19 46° NE
SL-14 R/B 4.2 20:37:59 10° N 20:40:36 42° NNW 20:40:36 42° NNW
USA 59 Rocket 2.5 20:40:20 10° WNW 20:43:42 20° WSW 20:46:30 14° SSW
CZ-4 R/B 4.2 20:41:53 10° WSW 20:43:46 13° W 20:45:41 10° WNW
IRS-1C Rocket 4.2 20:45:02 59° NE 20:45:02 59° NE 20:49:53 10° N
Cosmos 773 Rocket 3.9 20:45:39 82° S 20:45:53 87° ESE 20:51:13 10° NNE
Resurs 01 Rocket 3.9 20:47:47 10° SW 20:51:06 21° W 20:54:27 10° NW
Cosmos 2278 Rocket 3.9 20:46:32 10° NW 20:51:15 27° WSW 20:54:31 16° SSW
Cosmos 1743 Rocket 4.3 20:56:19 48° WNW 20:56:19 48° WNW 21:00:30 10° N
MetOp-B 4.1 20:56:15 73° SW 20:56:32 75° WSW 21:01:55 10° NNW
Cosmos 2228 Rocket 4.2 20:52:22 10° N 20:55:20 39° N 20:55:20 39° N
Okean-O 3.4 21:00:31 49° WNW 21:00:31 49° WNW 21:04:22 10° NNW
SPOT 5 3.3 21:01:22 55° WNW 21:01:22 55° WNW 21:05:23 10° NNW
NOSS 3-3 (C) 4.4 20:59:21 10° WSW 21:04:38 54° NW 21:10:51 10° NNE
ISS -0.9 21:02:27 10° WNW 21:03:42 18° WNW 21:03:42 18° WNW
USA 267 4.2 21:08:22 32° NE 21:10:09 37° NNE 21:16:03 10° NW
Cosmos 2237 Rocket 4.3 21:13:01 10° WSW 21:17:34 25° NW 21:22:07 10° N
Cosmos 2279 Rocket 4.0 21:19:59 71° N 21:19:59 71° N 21:25:30 10° N
Cosmos 1607 4.2 21:16:25 10° SW 21:22:51 67° NW 21:29:17 10° NNE
MOS 1 Rocket 4.4 21:24:48 45° WNW 21:24:48 45° WNW 21:29:22 10° NNW
ATLAS CENTAUR R/B 4.2 21:26:06 10° WNW 21:28:07 14° NW 21:29:51 11° N
Cosmos 2297 4.3 21:24:39 10° NNW 21:28:59 54° NNW 21:28:59 54° NNW
NOSS 3-4 (A) 3.9 21:38:15 10° NW 21:44:37 77° NW 21:44:37 77° NW
NOSS 3-4 (C) 3.9 21:38:22 10° NW 21:44:43 77° NW 21:44:43 77° NW
Cosmos 2369 Rocket 3.2 21:43:04 10° NNW 21:46:58 44° NW 21:46:58 44° NW
Terra 3.8 21:52:34 26° NW 21:52:34 26° NW 21:55:00 10° NNW
ACS3 Solar Sail 4.1 21:54:51 12° WSW 21:58:21 17° W 22:02:26 10° NW
SL-16 R/B 4.0 22:17:00 25° WNW 22:17:57 27° NW 22:22:42 10° N
ATLAS 2AS CENTAUR R/B 4.4 22:30:43 10° NNW 22:35:57 22° NNE 22:36:31 22° NNE
USA 267 4.5 22:55:43 35° NW 22:55:43 35° NW 22:59:15 10° NW
Cosmos 2344 4.2 23:20:17 10° NW 23:27:14 63° N 23:27:14 63° N
